{"data":{"norad_id":49002,"epoch":"2026-05-25T04:53:39.190848Z","epoch_age_seconds":51254,"freshness":"FRESH","line1":"1 49002U 21060AM  26145.20392582  .00000020  00000+0  18277-4 0  9993","line2":"2 49002  87.9105 233.3357 0001892 110.0539 250.0796 13.16593004236576","mean_motion":13.16593004,"eccentricity":0.0001892,"inclination_deg":87.9105,"raan_deg":233.3357,"arg_perigee_deg":110.0539,"mean_anomaly_deg":250.0796,"bstar":1.8277e-5,"rev_number":23657,"period_min":109.37320763707,"perigee_km":1196.3281137479,"apogee_km":1199.1948337304,"semimajor_km":7575.8984737391,"source":"CELESTRAK","updated_at":"2026-05-25T13:38:22.480029Z"}}